TOM8WR EGGD-LGKF

Flight info

Callsign TOM8WR
Flight time N/A
Altitude 37000
Route YORQI L607 ALHAD UN859 VAPID L18 MID UL612 OGULO DCT OKASI DCT OKEKO DCT MOU DCT MADIV DCT MOKIP DCT TUFTA DCT KOGAS DCT MEDAM DCT NITAM DCT MOGBO DCT MAREL DCT TIBER DCT OKUNO DCT EKTOL DCT LATAN UM872 ASTUS
Aircraft B38M/M-SDE1FGHILORVWXY/HB1

Departure

Time N/A
Airport Bristol Airport (EGGD)

Arrival

Time 2026-04-27 16:30
Airport Kefallinia Airport (LGKF)
Time Latitude Longitude Altitude Speed Heading
2026-04-27 15:46 40.32788 16.87576 37158 ft 471 kts 122°
2026-04-27 15:46 40.31088 16.91187 37148 ft 471 kts 122°
2026-04-27 15:46 40.27645 16.98484 37106 ft 470 kts 122°
2026-04-27 15:47 40.24203 17.05762 37079 ft 470 kts 123°
2026-04-27 15:47 40.20755 17.13038 37072 ft 470 kts 123°
2026-04-27 15:48 40.17307 17.20294 37075 ft 469 kts 123°
2026-04-27 15:49 40.12136 17.31147 37072 ft 469 kts 123°
2026-04-27 15:49 40.08680 17.38377 37071 ft 469 kts 123°
2026-04-27 15:50 40.05220 17.45601 37076 ft 469 kts 123°
2026-04-27 15:50 40.01776 17.52776 37077 ft 469 kts 123°
2026-04-27 15:51 39.98307 17.59986 37075 ft 469 kts 123°
2026-04-27 15:51 39.94841 17.67171 37074 ft 469 kts 123°
2026-04-27 15:52 39.91369 17.74354 37076 ft 468 kts 123°
2026-04-27 15:52 39.87890 17.81534 37073 ft 468 kts 123°
2026-04-27 15:53 39.84411 17.88698 37075 ft 468 kts 123°
2026-04-27 15:53 39.80931 17.95848 37078 ft 468 kts 123°
2026-04-27 15:54 39.77444 18.02997 37076 ft 468 kts 123°
2026-04-27 15:54 39.74543 18.08932 37078 ft 468 kts 123°
2026-04-27 15:55 39.71042 18.16076 37073 ft 468 kts 123°
2026-04-27 15:55 39.67539 18.23211 37074 ft 468 kts 123°
2026-04-27 15:56 39.64035 18.30333 37076 ft 468 kts 123°
2026-04-27 15:56 39.60521 18.37458 37079 ft 468 kts 123°
2026-04-27 15:57 39.57005 18.44570 37078 ft 469 kts 123°
2026-04-27 15:57 39.53483 18.51677 37078 ft 469 kts 123°
2026-04-27 15:58 39.49955 18.58783 37077 ft 468 kts 123°
2026-04-27 15:58 39.46449 18.65831 37077 ft 468 kts 124°
2026-04-27 15:59 39.42921 18.72909 37078 ft 468 kts 124°
2026-04-27 15:59 39.39385 18.79988 37075 ft 468 kts 124°
2026-04-27 16:00 39.35838 18.87073 37080 ft 468 kts 124°
2026-04-27 16:00 39.32307 18.94112 36955 ft 460 kts 124°
2026-04-27 16:00 39.30597 18.97515 36456 ft 456 kts 124°
2026-04-27 16:01 39.28738 19.00810 35792 ft 454 kts 135°
2026-04-27 16:01 39.26500 19.03669 35250 ft 451 kts 136°
2026-04-27 16:01 39.24317 19.06536 34849 ft 445 kts 136°
2026-04-27 16:01 39.22151 19.09368 34385 ft 442 kts 136°
2026-04-27 16:02 39.19998 19.12174 33853 ft 439 kts 136°
2026-04-27 16:02 39.17850 19.14969 33295 ft 437 kts 136°
2026-04-27 16:02 39.15722 19.17735 32816 ft 433 kts 136°
2026-04-27 16:02 39.13604 19.20485 32344 ft 430 kts 136°
2026-04-27 16:03 39.11504 19.23210 31880 ft 426 kts 136°
2026-04-27 16:03 39.09425 19.25905 31417 ft 423 kts 136°
2026-04-27 16:03 39.07354 19.28587 30963 ft 420 kts 136°
2026-04-27 16:03 39.05299 19.31246 30507 ft 418 kts 136°
2026-04-27 16:04 39.03259 19.33883 30054 ft 415 kts 136°
2026-04-27 16:04 39.01227 19.36508 29553 ft 412 kts 136°
2026-04-27 16:04 38.99210 19.39112 29119 ft 408 kts 136°
2026-04-27 16:04 38.97213 19.41686 28692 ft 404 kts 136°
2026-04-27 16:05 38.95239 19.44232 28283 ft 400 kts 136°
2026-04-27 16:05 38.93276 19.46758 27884 ft 397 kts 136°
2026-04-27 16:05 38.91330 19.49260 27466 ft 394 kts 136°
2026-04-27 16:05 38.89404 19.51735 27065 ft 391 kts 136°
2026-04-27 16:06 38.87488 19.54195 26673 ft 388 kts 136°
2026-04-27 16:06 38.85586 19.56637 26283 ft 385 kts 136°
2026-04-27 16:06 38.83721 19.59026 25907 ft 383 kts 136°
2026-04-27 16:06 38.81840 19.61437 25527 ft 381 kts 136°
2026-04-27 16:07 38.79975 19.63824 25152 ft 378 kts 135°
2026-04-27 16:07 38.78114 19.66205 24781 ft 376 kts 135°
2026-04-27 16:07 38.76267 19.68565 24417 ft 375 kts 135°
2026-04-27 16:07 38.74425 19.70918 24049 ft 373 kts 135°
2026-04-27 16:08 38.72588 19.73261 23674 ft 371 kts 135°
2026-04-27 16:08 38.70764 19.75587 23248 ft 370 kts 135°
2026-04-27 16:08 38.68947 19.77902 22843 ft 368 kts 135°
2026-04-27 16:08 38.67135 19.80209 22429 ft 366 kts 136°
2026-04-27 16:09 38.65337 19.82496 22068 ft 363 kts 136°
2026-04-27 16:09 38.61791 19.87003 21363 ft 356 kts 136°
2026-04-27 16:09 38.60034 19.89233 21018 ft 353 kts 136°
2026-04-27 16:10 38.56575 19.93620 20333 ft 348 kts 136°
2026-04-27 16:10 38.53161 19.97942 19666 ft 343 kts 136°
2026-04-27 16:11 38.51469 20.00083 19325 ft 341 kts 136°
2026-04-27 16:11 38.48148 20.04282 18682 ft 336 kts 136°
2026-04-27 16:12 38.44789 20.08389 17938 ft 332 kts 146°
2026-04-27 16:12 38.42749 20.09661 17604 ft 324 kts 168°
2026-04-27 16:12 38.38415 20.09411 17020 ft 308 kts 201°
2026-04-27 16:13 38.36521 20.08221 16719 ft 302 kts 217°
2026-04-27 16:13 38.33033 20.05132 16088 ft 311 kts 211°
2026-04-27 16:13 38.31124 20.03828 15795 ft 312 kts 209°
2026-04-27 16:14 38.27196 20.01525 15184 ft 309 kts 204°
2026-04-27 16:14 38.23174 19.99734 14564 ft 304 kts 198°
2026-04-27 16:15 38.19085 19.98482 13953 ft 301 kts 192°
2026-04-27 16:15 38.14960 19.97763 13292 ft 297 kts 186°
2026-04-27 16:16 38.10891 19.97566 12683 ft 292 kts 180°
2026-04-27 16:16 38.06848 19.97865 12110 ft 294 kts 174°
2026-04-27 16:17 38.02747 19.98684 11485 ft 300 kts 168°
2026-04-27 16:17 37.98723 20.00062 10857 ft 300 kts 155°
2026-04-27 16:18 37.96070 20.03859 10190 ft 293 kts 103°
2026-04-27 16:18 37.96476 20.08730 9731 ft 278 kts 70°
2026-04-27 16:19 37.97140 20.11024 9412 ft 276 kts 70°
2026-04-27 16:19 37.97965 20.13198 9105 ft 273 kts 54°
2026-04-27 16:20 38.00886 20.19233 8283 ft 264 kts 63°
2026-04-27 16:20 38.01644 20.21338 7978 ft 262 kts 71°
2026-04-27 16:20 38.01976 20.25871 7372 ft 259 kts 99°
2026-04-27 16:21 38.01540 20.28069 7103 ft 256 kts 110°
2026-04-27 16:21 37.98586 20.33623 6284 ft 260 kts 138°
2026-04-27 16:22 37.97313 20.35267 5991 ft 263 kts 129°
2026-04-27 16:22 37.95256 20.39107 5395 ft 263 kts 119°
2026-04-27 16:22 37.94449 20.41183 5088 ft 263 kts 113°
2026-04-27 16:23 37.93811 20.43344 4794 ft 261 kts 108°
2026-04-27 16:23 37.93058 20.47797 4201 ft 259 kts 96°
2026-04-27 16:23 37.92942 20.50067 4049 ft 251 kts 91°
2026-04-27 16:24 37.92993 20.52239 3929 ft 243 kts 85°
2026-04-27 16:24 37.93522 20.56294 3675 ft 228 kts 75°
2026-04-27 16:25 37.94576 20.60016 3466 ft 224 kts 58°
2026-04-27 16:25 37.97063 20.61917 3145 ft 209 kts
2026-04-27 16:26 37.99649 20.60600 2638 ft 202 kts 326°
2026-04-27 16:26 38.01933 20.58677 2266 ft 192 kts 324°
2026-04-27 16:27 38.04063 20.56835 1827 ft 181 kts 323°
2026-04-27 16:27 38.07011 20.54221 1119 ft 164 kts 320°
2026-04-27 16:28 38.08885 20.52614 600 ft 154 kts 328°
2026-04-27 16:28 38.10569 20.51254 250 ft 144 kts 324°
2026-04-27 16:29 38.12682 20.49474 53 ft 53 kts 326°
2026-04-27 16:30 38.12892 20.49310 51 ft 4 kts 272°
2026-04-27 16:30 38.12862 20.49302 52 ft 7 kts 142°
2026-04-27 16:31 38.12639 20.49511 49 ft 17 kts 146°
2026-04-27 16:31 38.12469 20.49654 54 ft 11 kts 146°
2026-04-27 16:32 38.12349 20.49756 51 ft 11 kts 145°
2026-04-27 16:32 38.12278 20.49816 51 ft 14 kts 147°
2026-04-27 16:33 38.12087 20.49978 54 ft 18 kts 146°
2026-04-27 16:33 38.11983 20.50067 55 ft 16 kts 146°
2026-04-27 16:33 38.11910 20.50130 56 ft 12 kts 143°
2026-04-27 16:33 38.11890 20.50224 57 ft 12 kts 80°
2026-04-27 16:34 38.11889 20.50297 59 ft 7 kts 118°
2026-04-27 16:34 38.11858 20.50334 55 ft 5 kts 145°
2026-04-27 16:34 38.11831 20.50359 55 ft 4 kts 135°
2026-04-27 16:34 38.11830 20.50398 57 ft 5 kts 64°
2026-04-27 16:35 38.11848 20.50434 57 ft 3 kts 57°
2026-04-27 16:35 38.11852 20.50442 53 ft 0 kts 57°